Weather History for Denver, CO

Change the Weather History Date:

Monday, September 3, 2012

  Actual Average Record
Temperature  
Mean Temperature 76 °F 68 °F  
Max Temperature 90 °F 83 °F 95 °F (1960)
Min Temperature 61 °F 53 °F 33 °F (1961)
Degree Days  
Heating Degree Days 0 1  
Month to date heating degree days 0 3  
Since 1 July heating degree days 0 19  
Cooling Degree Days 11 5  
Month to date cooling degree days 39 15  
Year to date cooling degree days 1161 703  
Growing Degree Days 26 (Base 50)    
Moisture  
Dew Point 40 °F    
Average Humidity 42    
Maximum Humidity 72    
Minimum Humidity 11    
Precipitation  
Precipitation T in 0.03 in 1.00 in (1961)
Month to date precipitation 0.04 0.09  
Year to date precipitation 5.44 11.45  
Snow  
Snow 0.00 in - - ()
Month to date snowfall 0  
Since 1 July snowfall 0  
Since 1 September snowfall 0  
Snow Depth 0.00 in    
Sea Level Pressure  
Sea Level Pressure 29.94 in    
Wind  
Wind Speed 11 mph (West)    
Max Wind Speed 28 mph    
Max Gust Speed 32 mph    
Visibility 10 miles    
Events Rain    
T = Trace of Precipitation, MM = Missing Value Source: NWS Daily Summary

Daily Weather History Graph

Daily Weather History Graph

Search for Another Location

Airport:

Trip Planner

Search our weather history database for the weather conditions in past years. The results will help you decide how hot, cold, wet, or windy it might be!

Date:

Astronomy

Sep. 03, 2012 Rise Set
Actual Time 6:28 AM MDT 7:25 PM MDT
Civil Twilight 6:01 AM MDT 7:53 PM MDT
Nautical Twilight 5:28 AM MDT 8:26 PM MDT
Astronomical Twilight 4:54 AM MDT 9:00 PM MDT
Moon 8:46 PM MDT (9/3) 9:39 AM MDT (9/3)
Length of Visible Light 13h 52m
Length of Day
12h 56m
Waning Gibbous, 90% of the Moon is Illuminated
Sep 3
Waning Gibbous
Sep 8
Last Quarter
Sep 15
New
Sep 22
First Quarter
Sep 29
Full

Hourly Weather History & Observations

Time (MDT) Temp. Dew Point Humidity Pressure Visibility Wind Dir Wind Speed Gust Speed Precip Events Conditions
12:53 AM 64.0 °F 51.1 °F 63% 29.91 in 10.0 mi South 9.2 mph - N/A   Mostly Cloudy
1:53 AM 63.0 °F 53.1 °F 70% 29.91 in 10.0 mi West 6.9 mph - N/A   Scattered Clouds
2:53 AM 62.6 °F 51.8 °F 68% 30.15 in 10.0 mi West 11.5 mph - N/A   Mostly Cloudy
3:53 AM 62.1 °F 50.0 °F 65% 29.91 in 10.0 mi West 12.7 mph - N/A   Mostly Cloudy
4:53 AM 61.0 °F 50.0 °F 67% 29.92 in 10.0 mi WSW 9.2 mph - N/A   Mostly Cloudy
5:53 AM 62.1 °F 48.9 °F 62% 29.93 in 10.0 mi SW 11.5 mph - N/A   Mostly Cloudy
6:53 AM 63.0 °F 48.9 °F 60% 29.98 in 10.0 mi SW 9.2 mph - N/A   Mostly Cloudy
7:53 AM 66.9 °F 48.0 °F 51% 29.99 in 10.0 mi SW 8.1 mph - N/A   Mostly Cloudy
8:53 AM 73.0 °F 46.0 °F 38% 29.98 in 10.0 mi SW 5.8 mph - N/A   Mostly Cloudy
9:53 AM 78.1 °F 45.0 °F 31% 29.96 in 10.0 mi SW 4.6 mph - N/A   Mostly Cloudy
10:53 AM 82.9 °F 39.9 °F 22% 29.96 in 10.0 mi WNW 8.1 mph - N/A   Scattered Clouds
11:53 AM 86.0 °F 34.0 °F 16% 29.93 in 10.0 mi NW 9.2 mph - N/A   Scattered Clouds
12:53 PM 87.1 °F 30.9 °F 13% 29.91 in 10.0 mi West 9.2 mph - N/A   Scattered Clouds
1:53 PM 87.1 °F 27.0 °F 11% 29.90 in 10.0 mi North 3.5 mph - N/A   Scattered Clouds
2:53 PM 88.0 °F 35.1 °F 15% 29.88 in 10.0 mi NNW 27.6 mph 31.1 mph N/A   Scattered Clouds
3:53 PM 84.0 °F 33.1 °F 16% 29.89 in 10.0 mi North 13.8 mph - N/A   Mostly Cloudy
4:38 PM 86.0 °F 32.0 °F 14% 30.13 in 10.0 mi NW 21.9 mph 32.2 mph N/A   Mostly Cloudy
4:53 PM 84.9 °F 30.9 °F 14% 29.89 in 10.0 mi NNW 16.1 mph 26.5 mph N/A   Mostly Cloudy
5:53 PM 82.9 °F 30.9 °F 15% 29.90 in 10.0 mi North 9.2 mph - N/A   Mostly Cloudy
6:53 PM 78.1 °F 34.0 °F 20% 29.92 in 10.0 mi WNW 16.1 mph 23.0 mph N/A   Mostly Cloudy
7:53 PM 77.0 °F 37.4 °F 24% 30.16 in 10.0 mi NW 16.1 mph - N/A Rain Light Rain
8:53 PM 77.0 °F 35.1 °F 22% 29.92 in 10.0 mi West 10.4 mph - 0.00 in   Scattered Clouds
9:53 PM 71.1 °F 36.0 °F 28% 29.92 in 10.0 mi SW 8.1 mph - N/A   Scattered Clouds
10:53 PM 69.1 °F 37.0 °F 31% 29.93 in 10.0 mi South 12.7 mph - N/A   Scattered Clouds
11:53 PM 69.1 °F 37.0 °F 31% 29.91 in 10.0 mi SSW 12.7 mph - N/A   Scattered Clouds